QPF
0.00 0.00 0.00 0.00 0.00 0.00 0.00 0.00 0.00 0.00 0.01 0.01 0.01 0.01 0.01 0.01 0.01 0.00 0.01 0.01 0.01 0.02 0.02 0.01 0.01 0.01 0.02 0.02 0.01 0.00 0.00 0.00 0.00 0.00 0.00 0.00 0.01 0.01 0.01 0.01 0.01 0.01 0.01
0.00 0.00 0.00 0.00 0.00 0.00 0.00 0.00 0.00 0.00 0.01 0.01 0.02 0.01 0.01 0.01 0.01 0.01 0.01 0.01 0.01 0.02 0.02 0.02 0.01 0.01 0.01 0.01 0.01 0.00 0.00 0.00 0.00 0.00 0.00 0.00 0.00 0.01 0.01 0.01 0.01 0.01 0.01
0.00 0.00 0.00 0.00 0.00 0.00 0.00 0.00 0.00 0.00 0.00 0.01 0.01 0.01 0.01 0.01 0.01 0.01 0.01 0.01 0.01 0.01 0.01 0.01 0.01 0.00 0.00 0.00 0.00 0.00 0.00 0.00 0.00 0.00 0.00 0.00 0.00 0.01 0.01 0.01 0.01 0.01 0.01
0.00 0.00 0.00 0.00 0.00 0.00 0.00 0.00 0.00 0.00 0.00 0.01 0.01 0.01 0.01 0.01 0.01 0.01 0.01 0.01 0.01 0.01 0.01 0.01 0.00 0.00 0.00 0.00 0.00 0.00 0.00 0.00 0.00 0.00 0.00 0.00 0.00 0.01 0.02 0.02 0.02 0.02 0.02
0.00 0.00 0.00 0.00 0.00 0.00 0.00 0.00 0.00 0.00 0.01 0.01 0.01 0.01 0.01 0.01 0.01 0.01 0.01 0.01 0.01 0.01 0.00 0.00 0.00 0.00 0.00 0.00 0.00 0.00 0.00 0.00 0.00 0.00 0.00 0.00 0.01 0.04 0.04 0.03 0.03 0.03 0.03
0.00 0.00 0.01 0.00 0.00 0.00 0.00 0.00 0.00 0.01 0.01 0.01 0.00 0.00 0.01 0.01 0.01 0.01 0.01 0.00 0.00 0.00 0.00 0.00 0.00 0.00 0.00 0.00 0.00 0.00 0.00 0.00 0.00 0.00 0.00 0.00 0.01 0.05 0.04 0.02 0.01 0.01 0.01
0.00 0.00 0.01 0.01 0.00 0.00 0.00 0.00 0.00 0.01 0.00 0.00 0.00 0.00 0.00 0.00 0.00 0.00 0.00 0.00 0.00 0.00 0.00 0.00 0.00 0.00 0.00 0.00 0.00 0.00 0.00 0.00 0.00 0.00 0.00 0.00 0.02 0.03 0.02 0.01 0.01 0.01 0.01
0.00 0.00 0.01 0.01 0.01 0.01 0.01 0.00 0.00 0.01 0.00 0.00 0.00 0.00 0.00 0.00 0.00 0.00 0.00 0.00 0.00 0.00 0.00 0.00 0.00 0.00 0.00 0.00 0.00 0.00 0.00 0.00 0.00 0.00 0.00 0.00 0.01 0.01 0.00 0.00 0.00 0.00 0.00
0.00 0.00 0.01 0.01 0.01 0.01 0.01 0.01 0.01 0.01 0.00 0.00 0.00 0.00 0.00 0.00 0.00 0.00 0.00 0.00 0.00 0.00 0.00 0.00 0.00 0.00 0.00 0.00 0.00 0.00 0.00 0.00 0.00 0.00 0.00 0.00 0.00 0.00 0.00 0.00 0.00 0.00 0.00
0.01 0.01 0.01 0.01 0.01 0.01 0.01 0.01 0.00 0.00 0.00 0.00 0.00 0.00 0.00 0.00 0.00 0.00 0.00 0.00 0.00 0.00 0.00 0.00 0.00 0.00 0.00 0.00 0.00 0.00 0.00 0.00 0.00 0.00 0.00 0.00 0.00 0.00 0.00 0.00 0.00 0.00 0.00
0.01 0.01 0.01 0.01 0.01 0.01 0.01 0.01 0.00 0.00 0.00 0.00 0.00 0.00 0.00 0.00 0.00 0.00 0.00 0.00 0.00 0.00 0.00 0.00 0.00 0.00 0.00 0.00 0.00 0.00 0.00 0.00 0.00 0.00 0.00 0.00 0.00 0.00 0.00 0.00 0.00 0.00 0.00
0.01 0.01 0.01 0.01 0.01 0.01 0.00 0.00 0.00 0.00 0.00 0.00 0.00 0.00 0.00 0.00 0.00 0.00 0.00 0.00 0.00 0.00 0.00 0.00 0.00 0.00 0.00 0.00 0.00 0.00 0.00 0.00 0.00 0.00 0.00 0.00 0.00 0.00 0.00 0.00 0.00 0.00 0.00
0.03 0.01 0.01 0.01 0.01 0.00 0.00 0.00 0.00 0.00 0.00 0.00 0.00 0.00 0.00 0.00 0.00 0.00 0.00 0.00 0.00 0.00 0.00 0.00 0.00 0.00 0.00 0.00 0.00 0.00 0.00 0.00 0.00 0.00 0.00 0.00 0.00 0.00 0.00 0.00 0.00 0.00 0.00
0.03 0.02 0.01 0.01 0.00 0.00 0.00 0.00 0.00 0.00 0.00 0.00 0.00 0.00 0.00 0.00 0.00 0.00 0.00 0.00 0.00 0.00 0.00 0.00 0.00 0.00 0.00 0.00 0.00 0.00 0.00 0.00 0.00 0.00 0.00 0.00 0.00 0.00 0.00 0.00 0.00 0.00 0.00
0.04 0.02 0.01 0.01 0.00 0.00 0.00 0.00 0.00 0.00 0.00 0.00 0.00 0.00 0.00 0.00 0.00 0.00 0.00 0.00 0.00 0.00 0.00 0.00 0.00 0.00 0.00 0.00 0.00 0.00 0.00 0.00 0.00 0.00 0.00 0.00 0.00 0.00 0.00 0.00 0.00 0.00 0.00
0.03 0.03 0.03 0.02 0.01 0.00 0.00 0.00 0.00 0.00 0.00 0.00 0.00 0.00 0.00 0.00 0.00 0.00 0.00 0.00 0.00 0.00 0.00 0.00 0.00 0.00 0.00 0.00 0.00 0.00 0.00 0.00 0.00 0.00 0.00 0.00 0.00 0.00 0.00 0.00 0.00 0.00 0.00
0.01 0.02 0.03 0.03 0.01 0.01 0.00 0.00 0.00 0.00 0.00 0.00 0.00 0.00 0.00 0.00 0.00 0.00 0.00 0.00 0.00 0.00 0.00 0.00 0.00 0.00 0.00 0.00 0.00 0.00 0.00 0.00 0.00 0.00 0.00 0.00 0.00 0.00 0.00 0.00 0.00 0.00 0.00
0.01 0.01 0.02 0.02 0.02 0.01 0.00 0.00 0.00 0.00 0.00 0.00 0.00 0.00 0.00 0.00 0.00 0.00 0.00 0.00 0.00 0.00 0.00 0.00 0.00 0.00 0.00 0.00 0.00 0.00 0.00 0.00 0.00 0.00 0.00 0.00 0.00 0.00 0.00 0.00 0.00 0.00 0.00
0.01 0.01 0.01 0.02 0.02 0.01 0.01 0.00 0.00 0.00 0.00 0.00 0.00 0.00 0.00 0.00 0.00 0.00 0.00 0.00 0.00 0.00 0.00 0.00 0.00 0.00 0.00 0.00 0.00 0.00 0.00 0.00 0.00 0.00 0.00 0.00 0.00 0.00 0.00 0.00 0.00 0.00 0.00
0.01 0.01 0.01 0.02 0.02 0.01 0.01 0.01 0.01 0.01 0.01 0.01 0.00 0.00 0.00 0.00 0.00 0.00 0.00 0.00 0.00 0.00 0.00 0.00 0.00 0.00 0.00 0.00 0.00 0.00 0.00 0.00 0.00 0.00 0.00 0.00 0.00 0.00 0.00 0.00 0.00 0.00 0.00
0.00 0.01 0.01 0.01 0.01 0.01 0.01 0.01 0.00 0.00 0.01 0.00 0.00 0.00 0.00 0.00 0.00 0.00 0.00 0.00 0.00 0.00 0.00 0.00 0.00 0.00 0.00 0.00 0.00 0.00 0.00 0.00 0.00 0.00 0.00 0.00 0.00 0.00 0.00 0.00 0.00 0.00 0.00
0.00 0.00 0.01 0.01 0.01 0.01 0.01 0.01 0.01 0.01 0.01 0.00 0.00 0.00 0.00 0.00 0.01 0.00 0.00 0.01 0.00 0.00 0.01 0.01 0.01 0.00 0.00 0.00 0.01 0.00 0.00 0.00 0.00 0.00 0.00 0.00 0.00 0.00 0.00 0.00 0.00 0.00 0.00
0.00 0.00 0.01 0.01 0.02 0.02 0.02 0.02 0.01 0.01 0.00 0.01 0.01 0.01 0.01 0.02 0.01 0.01 0.02 0.01 0.01 0.01 0.01 0.01 0.01 0.01 0.01 0.01 0.01 0.01 0.01 0.00 0.00 0.00 0.00 0.00 0.00 0.00 0.00 0.00 0.00 0.01 0.01
0.00 0.00 0.01 0.01 0.02 0.02 0.02 0.02 0.01 0.01 0.01 0.01 0.02 0.02 0.02 0.01 0.02 0.02 0.02 0.01 0.01 0.01 0.01 0.01 0.01 0.02 0.02 0.02 0.01 0.01 0.01 0.01 0.01 0.01 0.00 0.00 0.01 0.01 0.01 0.01 0.01 0.01 0.02
0.00 0.00 0.00 0.01 0.01 0.01 0.02 0.03 0.03 0.02 0.01 0.02 0.02 0.01 0.01 0.01 0.01 0.02 0.02 0.01 0.01 0.01 0.02 0.02 0.02 0.03 0.03 0.03 0.03 0.03 0.03 0.02 0.02 0.02 0.02 0.01 0.02 0.03 0.03 0.03 0.03 0.03 0.04
0.00 0.00 0.00 0.00 0.01 0.01 0.01 0.02 0.02 0.02 0.02 0.02 0.02 0.01 0.01 0.02 0.02 0.01 0.02 0.02 0.02 0.02 0.02 0.03 0.04 0.04 0.04 0.04 0.04 0.04 0.04 0.04 0.04 0.05 0.05 0.04 0.04 0.04 0.05 0.05 0.05 0.06 0.07
MSLP
1013.91 1013.70 1013.62 1013.72 1014.01 1014.44 1014.94 1015.44 1015.88 1016.22 1016.46 1016.61 1016.74 1016.88 1017.08 1017.34 1017.65 1017.98 1018.28 1018.51 1018.67 1018.75 1018.78 1018.79 1018.80 1018.85 1018.92 1019.02 1019.12 1019.20 1019.25 1019.26 1019.25 1019.24 1019.23 1019.24 1019.26 1019.30 1019.33 1019.33 1019.31 1019.25 1019.17
1013.69 1013.54 1013.52 1013.68 1014.00 1014.47 1015.00 1015.54 1016.01 1016.38 1016.65 1016.84 1017.00 1017.17 1017.39 1017.65 1017.96 1018.28 1018.57 1018.80 1018.96 1019.07 1019.12 1019.17 1019.22 1019.28 1019.36 1019.45 1019.52 1019.56 1019.56 1019.54 1019.50 1019.48 1019.47 1019.50 1019.54 1019.59 1019.63 1019.64 1019.61 1019.54 1019.44
1013.43 1013.37 1013.42 1013.64 1014.02 1014.53 1015.10 1015.66 1016.16 1016.56 1016.86 1017.07 1017.26 1017.44 1017.67 1017.93 1018.22 1018.52 1018.79 1019.00 1019.17 1019.28 1019.36 1019.44 1019.52 1019.61 1019.71 1019.79 1019.85 1019.87 1019.85 1019.81 1019.76 1019.74 1019.74 1019.78 1019.85 1019.92 1019.97 1019.98 1019.95 1019.88 1019.79
1013.17 1013.21 1013.36 1013.66 1014.10 1014.65 1015.24 1015.82 1016.32 1016.73 1017.04 1017.27 1017.47 1017.66 1017.88 1018.13 1018.40 1018.67 1018.91 1019.11 1019.27 1019.39 1019.49 1019.60 1019.71 1019.84 1019.96 1020.05 1020.11 1020.13 1020.11 1020.07 1020.03 1020.02 1020.04 1020.10 1020.18 1020.26 1020.32 1020.34 1020.32 1020.26 1020.17
1012.99 1013.13 1013.38 1013.75 1014.24 1014.82 1015.42 1015.99 1016.48 1016.88 1017.17 1017.40 1017.59 1017.79 1018.00 1018.24 1018.49 1018.74 1018.96 1019.14 1019.29 1019.42 1019.55 1019.68 1019.83 1019.98 1020.13 1020.25 1020.33 1020.36 1020.36 1020.34 1020.32 1020.32 1020.36 1020.43 1020.52 1020.61 1020.67 1020.70 1020.68 1020.63 1020.56
1012.94 1013.17 1013.49 1013.93 1014.46 1015.04 1015.62 1016.16 1016.61 1016.97 1017.24 1017.45 1017.64 1017.83 1018.04 1018.28 1018.52 1018.76 1018.98 1019.16 1019.31 1019.45 1019.59 1019.74 1019.91 1020.09 1020.27 1020.41 1020.52 1020.58 1020.60 1020.61 1020.61 1020.64 1020.69 1020.77 1020.86 1020.94 1021.00 1021.03 1021.02 1020.98 1020.94
1013.03 1013.32 1013.71 1014.18 1014.72 1015.29 1015.84 1016.32 1016.72 1017.02 1017.25 1017.44 1017.62 1017.82 1018.04 1018.29 1018.55 1018.80 1019.02 1019.21 1019.37 1019.52 1019.67 1019.84 1020.03 1020.22 1020.41 1020.58 1020.71 1020.80 1020.85 1020.88 1020.91 1020.95 1021.01 1021.09 1021.17 1021.24 1021.29 1021.32 1021.31 1021.29 1021.27
1013.24 1013.58 1013.99 1014.48 1015.01 1015.55 1016.04 1016.47 1016.80 1017.06 1017.25 1017.42 1017.60 1017.81 1018.06 1018.33 1018.62 1018.90 1019.14 1019.35 1019.53 1019.69 1019.85 1020.02 1020.21 1020.40 1020.60 1020.78 1020.92 1021.03 1021.10 1021.15 1021.20 1021.25 1021.32 1021.39 1021.46 1021.52 1021.55 1021.57 1021.56 1021.56 1021.55
1013.52 1013.88 1014.30 1014.79 1015.30 1015.80 1016.24 1016.61 1016.89 1017.11 1017.28 1017.44 1017.63 1017.86 1018.14 1018.45 1018.78 1019.08 1019.36 1019.59 1019.78 1019.95 1020.11 1020.27 1020.45 1020.64 1020.82 1020.99 1021.13 1021.25 1021.33 1021.40 1021.46 1021.52 1021.58 1021.65 1021.71 1021.75 1021.78 1021.79 1021.79 1021.79 1021.80
1013.82 1014.17 1014.59 1015.06 1015.55 1016.01 1016.41 1016.75 1017.00 1017.20 1017.37 1017.54 1017.75 1018.01 1018.32 1018.67 1019.02 1019.35 1019.64 1019.89 1020.09 1020.26 1020.41 1020.56 1020.72 1020.88 1021.04 1021.20 1021.33 1021.44 1021.53 1021.60 1021.66 1021.73 1021.80 1021.86 1021.92 1021.96 1021.98 1021.99 1022.00 1022.01 1022.03
1014.06 1014.41 1014.82 1015.27 1015.73 1016.17 1016.56 1016.87 1017.13 1017.33 1017.52 1017.71 1017.95 1018.24 1018.57 1018.94 1019.30 1019.65 1019.95 1020.19 1020.39 1020.55 1020.69 1020.82 1020.96 1021.09 1021.23 1021.36 1021.48 1021.58 1021.66 1021.73 1021.80 1021.87 1021.94 1022.01 1022.07 1022.12 1022.16 1022.18 1022.20 1022.22 1022.26
1014.22 1014.56 1014.96 1015.39 1015.84 1016.26 1016.65 1016.97 1017.25 1017.48 1017.70 1017.93 1018.20 1018.50 1018.85 1019.21 1019.57 1019.91 1020.19 1020.43 1020.61 1020.76 1020.88 1021.00 1021.11 1021.23 1021.34 1021.45 1021.55 1021.64 1021.72 1021.79 1021.86 1021.94 1022.02 1022.10 1022.18 1022.24 1022.30 1022.35 1022.39 1022.43 1022.47
1014.27 1014.60 1014.99 1015.41 1015.85 1016.28 1016.67 1017.02 1017.33 1017.61 1017.87 1018.13 1018.42 1018.73 1019.07 1019.41 1019.75 1020.06 1020.32 1020.53 1020.70 1020.84 1020.95 1021.05 1021.15 1021.26 1021.36 1021.46 1021.56 1021.64 1021.71 1021.78 1021.85 1021.93 1022.02 1022.12 1022.22 1022.31 1022.40 1022.48 1022.54 1022.61 1022.67
1014.22 1014.55 1014.93 1015.34 1015.77 1016.20 1016.61 1016.99 1017.34 1017.66 1017.96 1018.25 1018.55 1018.86 1019.18 1019.49 1019.79 1020.05 1020.29 1020.48 1020.63 1020.76 1020.88 1020.98 1021.09 1021.20 1021.30 1021.40 1021.50 1021.58 1021.65 1021.72 1021.80 1021.88 1021.97 1022.08 1022.20 1022.32 1022.43 1022.54 1022.64 1022.73 1022.81
1014.09 1014.42 1014.78 1015.18 1015.59 1016.02 1016.44 1016.85 1017.24 1017.59 1017.93 1018.24 1018.54 1018.84 1019.12 1019.40 1019.66 1019.89 1020.09 1020.27 1020.43 1020.57 1020.70 1020.83 1020.95 1021.08 1021.20 1021.31 1021.42 1021.50 1021.58 1021.65 1021.72 1021.80 1021.89 1022.00 1022.12 1022.26 1022.40 1022.53 1022.66 1022.78 1022.88
1013.92 1014.24 1014.58 1014.95 1015.35 1015.76 1016.19 1016.61 1017.02 1017.40 1017.75 1018.07 1018.36 1018.64 1018.90 1019.14 1019.36 1019.58 1019.78 1019.96 1020.14 1020.30 1020.47 1020.63 1020.79 1020.95 1021.10 1021.23 1021.35 1021.44 1021.52 1021.59 1021.65 1021.72 1021.80 1021.89 1022.01 1022.14 1022.29 1022.44 1022.59 1022.73 1022.87
1013.74 1014.04 1014.35 1014.68 1015.06 1015.45 1015.87 1016.30 1016.71 1017.10 1017.45 1017.76 1018.04 1018.30 1018.53 1018.75 1018.96 1019.17 1019.39 1019.60 1019.81 1020.03 1020.24 1020.45 1020.65 1020.85 1021.03 1021.19 1021.32 1021.42 1021.50 1021.57 1021.62 1021.66 1021.72 1021.79 1021.88 1022.00 1022.13 1022.28 1022.43 1022.59 1022.75
1013.58 1013.84 1014.12 1014.42 1014.76 1015.13 1015.53 1015.95 1016.35 1016.73 1017.07 1017.37 1017.63 1017.86 1018.08 1018.28 1018.50 1018.72 1018.97 1019.22 1019.49 1019.76 1020.03 1020.29 1020.54 1020.78 1020.99 1021.17 1021.32 1021.43 1021.52 1021.57 1021.61 1021.63 1021.66 1021.70 1021.75 1021.83 1021.94 1022.06 1022.21 1022.38 1022.55
1013.45 1013.68 1013.92 1014.19 1014.49 1014.84 1015.22 1015.62 1016.00 1016.36 1016.68 1016.96 1017.19 1017.40 1017.59 1017.80 1018.02 1018.27 1018.55 1018.85 1019.18 1019.50 1019.83 1020.14 1020.43 1020.69 1020.93 1021.13 1021.29 1021.42 1021.51 1021.57 1021.60 1021.61 1021.61 1021.61 1021.63 1021.66 1021.73 1021.82 1021.95 1022.11 1022.29
1013.39 1013.58 1013.79 1014.03 1014.31 1014.63 1014.99 1015.36 1015.73 1016.06 1016.35 1016.59 1016.78 1016.96 1017.13 1017.33 1017.55 1017.82 1018.13 1018.48 1018.84 1019.21 1019.58 1019.92 1020.24 1020.53 1020.78 1021.00 1021.18 1021.32 1021.43 1021.50 1021.53 1021.54 1021.53 1021.51 1021.49 1021.49 1021.52 1021.58 1021.68 1021.82 1022.00
1013.40 1013.57 1013.75 1013.96 1014.22 1014.53 1014.87 1015.22 1015.56 1015.86 1016.11 1016.31 1016.46 1016.59 1016.73 1016.90 1017.11 1017.38 1017.70 1018.06 1018.44 1018.84 1019.22 1019.58 1019.91 1020.21 1020.47 1020.71 1020.91 1021.07 1021.20 1021.30 1021.36 1021.38 1021.38 1021.35 1021.33 1021.31 1021.31 1021.34 1021.42 1021.55 1021.72
1013.51 1013.66 1013.82 1014.02 1014.26 1014.55 1014.87 1015.20 1015.51 1015.78 1015.99 1016.14 1016.24 1016.32 1016.41 1016.53 1016.70 1016.94 1017.24 1017.58 1017.95 1018.33 1018.70 1019.05 1019.37 1019.67 1019.94 1020.19 1020.41 1020.61 1020.78 1020.92 1021.02 1021.08 1021.11 1021.12 1021.11 1021.09 1021.09 1021.12 1021.18 1021.30 1021.47
1013.72 1013.85 1014.00 1014.18 1014.41 1014.68 1014.99 1015.29 1015.58 1015.81 1015.98 1016.08 1016.12 1016.14 1016.16 1016.22 1016.33 1016.50 1016.74 1017.02 1017.34 1017.67 1018.01 1018.32 1018.63 1018.91 1019.18 1019.44 1019.69 1019.93 1020.15 1020.34 1020.50 1020.63 1020.72 1020.78 1020.81 1020.84 1020.87 1020.91 1020.98 1021.10 1021.26
1014.02 1014.15 1014.29 1014.45 1014.65 1014.90 1015.18 1015.46 1015.72 1015.92 1016.05 1016.10 1016.10 1016.05 1016.00 1015.98 1016.00 1016.09 1016.23 1016.43 1016.66 1016.92 1017.19 1017.46 1017.72 1017.99 1018.25 1018.52 1018.80 1019.08 1019.35 1019.60 1019.84 1020.04 1020.21 1020.34 1020.45 1020.54 1020.62 1020.71 1020.81 1020.95 1021.12
1014.40 1014.53 1014.64 1014.78 1014.95 1015.17 1015.41 1015.67 1015.90 1016.08 1016.18 1016.20 1016.15 1016.05 1015.94 1015.83 1015.76 1015.74 1015.78 1015.87 1016.00 1016.16 1016.35 1016.55 1016.77 1017.01 1017.27 1017.55 1017.85 1018.16 1018.48 1018.80 1019.10 1019.38 1019.63 1019.85 1020.05 1020.22 1020.38 1020.53 1020.69 1020.86 1021.06
1014.84 1014.96 1015.05 1015.14 1015.28 1015.45 1015.66 1015.89 1016.09 1016.25 1016.33 1016.34 1016.26 1016.13 1015.97 1015.80 1015.64 1015.52 1015.45 1015.43 1015.45 1015.51 1015.61 1015.74 1015.91 1016.12 1016.37 1016.66 1016.98 1017.32 1017.68 1018.05 1018.41 1018.75 1019.08 1019.38 1019.66 1019.92 1020.16 1020.39 1020.62 1020.84 1021.07
Thickness
5764 5766 5764 5762 5760 5759 5757 5755 5753 5751 5750 5748 5746 5745 5744 5742 5741 5740 5739 5738 5737 5736 5735 5734 5732 5731 5730 5728 5727 5725 5723 5722 5720 5718 5717 5715 5714 5713 5711 5709 5708 5707 5706
5767 5765 5763 5761 5759 5757 5755 5753 5751 5749 5747 5746 5744 5742 5741 5740 5739 5737 5736 5735 5734 5733 5731 5730 5728 5727 5726 5724 5722 5720 5719 5717 5715 5713 5712 5710 5709 5708 5707 5705 5704 5703 5701
5765 5762 5760 5759 5757 5754 5752 5750 5748 5747 5745 5743 5741 5740 5739 5737 5736 5735 5733 5732 5731 5729 5727 5726 5724 5723 5721 5719 5718 5716 5714 5712 5710 5709 5707 5706 5705 5704 5702 5701 5699 5698 5697
5762 5759 5757 5756 5754 5752 5750 5747 5746 5744 5742 5741 5739 5738 5736 5735 5734 5732 5730 5729 5727 5725 5723 5722 5720 5718 5716 5715 5713 5711 5709 5708 5706 5704 5703 5702 5701 5699 5698 5697 5695 5693 5692
5758 5756 5754 5753 5751 5749 5747 5745 5743 5741 5740 5738 5736 5735 5734 5733 5731 5729 5727 5725 5723 5721 5719 5717 5716 5714 5712 5710 5709 5707 5705 5704 5702 5700 5698 5697 5696 5695 5693 5692 5690 5688 5686
5754 5752 5750 5749 5747 5746 5744 5742 5740 5739 5737 5735 5734 5732 5731 5730 5728 5726 5723 5721 5719 5717 5715 5713 5711 5710 5708 5706 5705 5703 5701 5699 5697 5695 5694 5692 5691 5690 5688 5686 5684 5682 5681
5749 5747 5745 5745 5744 5742 5741 5739 5737 5736 5734 5733 5731 5730 5728 5727 5725 5722 5720 5718 5715 5713 5711 5709 5708 5706 5704 5702 5701 5699 5697 5695 5693 5691 5689 5688 5687 5685 5683 5681 5679 5677 5675
5745 5743 5741 5741 5740 5739 5738 5736 5734 5733 5731 5730 5728 5727 5725 5724 5721 5719 5716 5714 5712 5710 5708 5706 5704 5702 5701 5699 5697 5695 5693 5691 5689 5687 5685 5684 5682 5680 5678 5676 5674 5672 5670
5740 5739 5738 5737 5736 5735 5734 5733 5731 5730 5728 5727 5725 5724 5722 5720 5718 5715 5713 5711 5708 5706 5704 5702 5700 5699 5697 5695 5693 5691 5689 5687 5685 5683 5681 5679 5677 5675 5673 5671 5669 5667 5665
5734 5734 5733 5733 5732 5731 5730 5729 5728 5727 5725 5723 5722 5720 5718 5716 5714 5712 5709 5707 5705 5703 5701 5699 5697 5695 5693 5691 5689 5687 5685 5683 5681 5679 5677 5675 5673 5671 5669 5666 5665 5662 5660
5727 5728 5729 5729 5728 5727 5726 5725 5724 5723 5722 5720 5718 5716 5714 5712 5710 5708 5705 5703 5701 5699 5697 5695 5693 5691 5690 5688 5685 5683 5681 5679 5677 5675 5673 5672 5670 5667 5665 5662 5660 5658 5655
5720 5722 5724 5724 5724 5723 5722 5721 5720 5719 5717 5716 5714 5712 5710 5708 5706 5703 5701 5699 5697 5695 5693 5691 5689 5687 5686 5684 5682 5680 5677 5675 5673 5671 5669 5667 5665 5663 5660 5658 5656 5653 5651
5716 5718 5719 5720 5720 5720 5718 5716 5715 5715 5713 5712 5711 5709 5707 5704 5702 5699 5697 5695 5693 5691 5689 5687 5685 5683 5682 5680 5678 5676 5674 5671 5669 5667 5666 5664 5661 5659 5656 5653 5651 5649 5646
5712 5714 5716 5717 5716 5716 5715 5713 5712 5711 5709 5708 5707 5705 5703 5700 5698 5696 5694 5692 5690 5688 5685 5683 5681 5680 5678 5676 5674 5673 5670 5668 5666 5664 5662 5660 5657 5655 5652 5649 5646 5643 5641
5708 5710 5712 5713 5713 5712 5711 5710 5708 5707 5706 5705 5704 5702 5700 5698 5695 5693 5690 5688 5686 5684 5682 5680 5677 5675 5674 5672 5671 5669 5667 5665 5663 5661 5658 5656 5653 5650 5647 5644 5642 5638 5636
5704 5707 5709 5710 5710 5708 5707 5707 5706 5704 5704 5702 5701 5699 5697 5695 5693 5690 5687 5685 5683 5681 5679 5677 5674 5672 5670 5668 5667 5665 5664 5661 5659 5656 5654 5651 5649 5646 5643 5640 5637 5634 5631
5700 5703 5705 5706 5706 5705 5705 5704 5703 5702 5701 5700 5698 5697 5695 5693 5690 5688 5685 5683 5680 5678 5676 5673 5670 5668 5666 5664 5663 5661 5660 5657 5655 5652 5650 5647 5644 5641 5638 5635 5632 5629 5625
5696 5698 5700 5702 5702 5702 5701 5701 5700 5699 5699 5698 5696 5695 5693 5691 5688 5685 5683 5681 5678 5675 5672 5669 5666 5663 5661 5659 5657 5656 5654 5652 5650 5648 5645 5642 5639 5636 5632 5629 5626 5623 5620
5690 5692 5694 5696 5696 5697 5698 5697 5697 5697 5696 5695 5693 5692 5690 5689 5686 5684 5681 5679 5676 5672 5669 5666 5663 5660 5657 5654 5652 5650 5648 5647 5645 5642 5639 5636 5633 5630 5627 5624 5620 5617 5613
5683 5686 5688 5689 5691 5692 5692 5692 5692 5692 5692 5691 5690 5689 5687 5686 5684 5681 5679 5676 5673 5670 5666 5663 5659 5656 5653 5649 5646 5644 5642 5640 5639 5636 5634 5630 5627 5624 5621 5618 5614 5610 5607
5674 5678 5680 5682 5684 5685 5685 5685 5685 5685 5685 5685 5685 5685 5684 5682 5680 5678 5676 5673 5670 5667 5664 5660 5655 5651 5647 5642 5638 5635 5634 5633 5632 5630 5627 5624 5621 5618 5614 5611 5607 5604 5599
5665 5670 5673 5675 5677 5679 5680 5680 5680 5680 5680 5681 5681 5680 5679 5678 5676 5674 5672 5669 5666 5663 5659 5655 5651 5646 5642 5637 5631 5625 5623 5624 5625 5624 5620 5617 5615 5611 5608 5604 5600 5596 5592
5656 5660 5665 5668 5670 5672 5673 5673 5672 5673 5673 5673 5674 5674 5673 5672 5671 5670 5668 5665 5662 5659 5655 5651 5647 5642 5637 5631 5628 5623 5617 5617 5616 5615 5613 5610 5607 5603 5600 5595 5591 5587 5582
5647 5651 5655 5659 5661 5663 5665 5665 5665 5665 5665 5667 5667 5667 5667 5666 5665 5664 5662 5660 5657 5654 5651 5648 5644 5639 5634 5628 5621 5619 5617 5615 5608 5607 5605 5601 5597 5593 5590 5586 5582 5577 5573
5637 5640 5644 5648 5651 5654 5656 5657 5657 5658 5659 5658 5658 5658 5658 5658 5658 5657 5656 5654 5652 5649 5646 5643 5639 5635 5631 5626 5619 5613 5608 5604 5601 5598 5597 5592 5586 5583 5579 5575 5571 5567 5563
5627 5630 5634 5637 5640 5643 5645 5647 5648 5649 5649 5649 5649 5649 5649 5650 5649 5649 5648 5647 5645 5643 5640 5637 5634 5629 5625 5621 5616 5610 5605 5599 5595 5590 5589 5584 5578 5572 5567 5563 5559 5555 5550